Regional Weather Roundup
Issued by NWS

Home | Current Version | Previous Version | Graphics & Text | Print | Product List | Glossary On
Versions: 1 2 3 4 5 6 7 8 9 10 11 12 13 14 15 16 17 18 19 20 21 22 23 24 25 26 27 28 29 30 31 32 33 34 35 36 37 38 39 40 41 42 43 44 45 46 47 48 49 50
000
ASUS43 KDMX 130806
RWRIA

WEATHER ROUNDUP FOR IOWA
NATIONAL WEATHER SERVICE DES MOINES IA
200 AM CST WED DEC 13 2017

NOTE: "FAIR" INDICATES FEW OR NO CLOUDS BELOW 12,000 FEET WITH NO
SIGNIFICANT WEATHER AND/OR OBSTRUCTIONS TO VISIBILITY.

* - THESE STATIONS ARE NOT NWS STATIONS...THUS NOT UNDER NWS
QUALITY CONTROL.  THEY ALSO DO NOT REPORT WEATHER SUCH
AS PRECIPITATION OR FOG.

IAZ001>003-012>014-020>022-031>034-043>046-130900-
   NORTHWEST IOWA

CITY           SKY/WX    TMP DP  RH WIND       PRES   REMARKS
CARROLL *      CLOUDY    34  25  69 SW23      29.58F WCI  22
CHEROKEE *     PTCLDY    32  24  71 S7        29.55F WCI  26
DENISON *      CLOUDY    34  25  69 SW12      29.62F WCI  25
LE MARS *      CLOUDY    32  23  69 S8        29.56F WCI  25
ORANGE CITY *  PTCLDY    36  27  69 SW13      29.53F WCI  27
SHELDON *      PTCLDY    34  23  64 SW15      29.50F WCI  24
SIOUX CITY     CLOUDY    23  19  85 E5        29.59F WCI  17
SPENCER        CLOUDY    34  23  64 SW14      29.51F WCI  25
STORM LAKE *   CLOUDY    34  23  64 SW13      29.54F WCI  25
$$

IAZ055>058-069>071-079>083-090>094-130900-
   SOUTHWEST IOWA

CITY           SKY/WX    TMP DP  RH WIND       PRES   REMARKS
ATLANTIC *     CLOUDY    30  27  86 SW13      29.66F WCI  20
AUDUBON *      CLOUDY    34  27  75 SW14      29.63F WCI  24
CLARINDA *       N/A     28  25  86 S9          N/A  WCI  20
COUNCIL BLFS * CLEAR     34  27  75 SW12      29.66F WCI  25
CRESTON *      CLOUDY    30  25  80 S13G20    29.69F WCI  20
HARLAN  *      CLEAR     30  27  86 S13       29.66F WCI  20
LAMONI         CLOUDY    30  23  75 S15       29.72F WCI  19
RED OAK *      CLEAR     28  25  86 S6G13     29.69F WCI  22
SHENANDOAH *   CLEAR     32  25  74 SW7       29.71F WCI  26
$$

IAZ047>049-059>061-072>074-084-130900-
   CENTRAL IOWA

CITY           SKY/WX    TMP DP  RH WIND       PRES   REMARKS
AMES           CLOUDY    31  26  82 S9        29.62F WCI  23
ANKENY *       PTCLDY    32  25  74 S9G15     29.66F WCI  24
BOONE *        CLOUDY    34  25  69 SW13G22   29.59F WCI  25
CHARITON *     CLOUDY    30  23  74 S15       29.70F WCI  19
DES MOINES     CLOUDY    31  24  75 S8        29.66F WCI  23
GRINNELL*      CLOUDY    28  22  79 S14       29.68F WCI  16
KNOXVILLE *    PTCLDY    32  23  69 S15G23    29.67F WCI  22
MARSHALLTOWN   CLOUDY    31  23  72 S14       29.62F WCI  21
NEWTON *       CLOUDY    30  23  74 S13       29.67F WCI  20
PELLA *        CLOUDY    32  23  71 SW9G16    29.70F WCI  24
PERRY *          N/A     34  24  68 SW14      29.61F WCI  24
$$

IAZ004>006-015-016-023>025-035-036-130900-
   NORTH CENTRAL IOWA

CITY           SKY/WX    TMP DP  RH WIND       PRES   REMARKS
ALGONA *       CLOUDY    30  27  86 SW12      29.51F WCI  21
CLARION *      CLOUDY    30  25  80 S14       29.55F WCI  20
ESTHERVILLE    CLOUDY    33  24  69 SW13      29.48F WCI  24
FORT DODGE *   CLOUDY    32  23  69 SW12      29.57F WCI  23
MASON CITY     CLOUDY    30  22  72 S10       29.53F WCI  21
FOREST CITY *    N/A     32  27  80 SW10      29.52F WCI  24
WEBSTER CITY * CLOUDY    32  23  69 SW16      29.55F WCI  21
IOWA FALLS *     N/A     30  24  77 S17       29.59F WCI  18
$$

IAZ007>011-017>019-026>030-037>042-050>054-066-130900-
   NORTHEAST IOWA

CITY           SKY/WX    TMP DP  RH WIND       PRES   REMARKS
CEDAR RAPIDS   CLOUDY    27  19  72 S14       29.68F WCI  16
CHARLES CITY * CLOUDY    27  23  86 S12       29.57F WCI  16
CLINTON *      CLOUDY    26  14  60 S9        29.77F WCI  17
DECORAH *      CLOUDY    27  21  80 S8G16     29.57F WCI  18
DUBUQUE        CLOUDY    24  15  68 S12       29.69F WCI  13
MONTICELLO *   CLOUDY    25  14  63 S9        29.70F WCI  15
OELWEIN *      CLOUDY    25  21  86 S15       29.61F WCI  12
WATERLOO       CLOUDY    28  21  75 S14       29.60F WCI  17
$$

IAZ064-065-067-068-078-130900-
   EAST CENTRAL IOWA

CITY           SKY/WX    TMP DP  RH WIND       PRES   REMARKS
DAVENPORT      MOCLDY    26  12  55 S12       29.79F WCI  16
IOWA CITY      CLOUDY    29  18  63 S9        29.75F WCI  20
MT. PLEASANT * CLOUDY    27  16  62 S12       29.78F WCI  17
MUSCATINE *    PTCLDY    28  16  59 S10       29.78F WCI  19
QUAD CITIES    MOCLDY    29  13  51 SW9       29.78F WCI  20
$$

IAZ062-063-075>077-085>089-095>099-130900-
   SOUTHEAST IOWA

CITY           SKY/WX    TMP DP  RH WIND       PRES   REMARKS
BURLINGTON     CLOUDY    28  17  63 S13       29.80F WCI  17
FAIRFIELD *    CLOUDY    30  19  64 S10G18    29.74F WCI  21
FORT MADISON * CLOUDY    28  18  64 S14       29.80F WCI  17
KEOKUK *       CLOUDY    28  16  59 S10       29.81F WCI  19
OSKALOOSA *      N/A     29  22  75 S13       29.71F WCI  19
OTTUMWA        CLEAR     30  20  66 S15       29.72F WCI  19
WASHINGTON *   CLEAR     28  19  69 S17       29.75F WCI  16
$$

ABBREVIATIONS USED IN REMARKS
   TC - TEMPERATURES IN CELSIUS
  WCI - WIND CHILL INDEX
   HX - HEAT INDEX
  VSB - VISIBILITY
$$





USA.gov is the U.S. government's official web portal to all federal, state and local government web resources and services.